TimeMST,TemperatureF,Dew PointF,Humidity,Sea Level PressureIn,VisibilityMPH,Wind Direction,Wind SpeedMPH,Gust SpeedMPH,PrecipitationIn,Events,Conditions,WindDirDegrees,DateUTC
12:01 AM,6.1,1.0,80,29.78,10.0,North,6.9,-,N/A,,Overcast,350,2013-12-22 07:01:00
12:11 AM,5.0,1.0,84,29.78,10.0,North,8.1,-,N/A,,Overcast,360,2013-12-22 07:11:00
12:18 AM,5.0,1.0,84,29.78,10.0,North,8.1,-,N/A,,Overcast,360,2013-12-22 07:18:00
12:53 AM,3.0,-0.0,87,29.86,10.0,NNE,3.5,-,N/A,,Mostly Cloudy,30,2013-12-22 07:53:00
1:44 AM,1.9,-2.0,83,29.81,10.0,NE,5.8,-,N/A,,Overcast,40,2013-12-22 08:44:00
1:53 AM,1.9,-2.0,83,29.89,10.0,North,4.6,-,N/A,,Overcast,10,2013-12-22 08:53:00
2:53 AM,3.0,-0.9,84,29.92,6.0,NE,6.9,-,N/A,,Overcast,40,2013-12-22 09:53:00
3:53 AM,3.0,-0.9,84,29.94,10.0,NE,5.8,-,N/A,,Overcast,50,2013-12-22 10:53:00
4:53 AM,3.9,-0.9,80,29.97,6.0,NE,10.4,-,0.00,,Haze,50,2013-12-22 11:53:00
5:30 AM,3.9,-0.9,80,29.88,1.8,NE,6.9,-,0.00,Snow,Light Snow,50,2013-12-22 12:30:00
5:50 AM,3.2,-0.4,85,29.89,2.0,NNE,6.9,-,0.00,Snow,Light Snow,30,2013-12-22 12:50:00
5:53 AM,5.0,-0.0,80,29.99,2.0,NE,5.8,-,0.00,Snow,Light Snow,40,2013-12-22 12:53:00
6:06 AM,3.9,-0.0,84,29.90,6.0,NE,6.9,-,0.00,Snow,Light Snow,40,2013-12-22 13:06:00
6:53 AM,1.0,-2.9,83,30.06,10.0,NE,6.9,-,0.00,,Overcast,40,2013-12-22 13:53:00
7:53 AM,1.9,-4.0,76,30.07,10.0,Variable,4.6,-,0.00,,Overcast,0,2013-12-22 14:53:00
8:53 AM,9.0,-0.9,64,30.04,10.0,NNE,5.8,-,N/A,,Mostly Cloudy,30,2013-12-22 15:53:00
9:50 AM,10.4,-0.4,62,29.97,10.0,NW,13.8,21.9,N/A,,Scattered Clouds,310,2013-12-22 16:50:00
9:53 AM,10.9,-0.0,61,30.06,10.0,NW,17.3,24.2,N/A,,Partly Cloudy,310,2013-12-22 16:53:00
10:53 AM,12.9,-0.0,56,30.06,10.0,NW,11.5,20.7,N/A,,Clear,310,2013-12-22 17:53:00
11:53 AM,15.1,1.9,56,30.03,10.0,WNW,19.6,25.3,N/A,,Clear,290,2013-12-22 18:53:00
12:53 PM,15.1,3.9,61,30.06,10.0,NW,18.4,25.3,N/A,,Scattered Clouds,310,2013-12-22 19:53:00
1:06 PM,15.1,3.9,61,29.96,7.0,NW,13.8,24.2,N/A,,Mostly Cloudy,310,2013-12-22 20:06:00
1:53 PM,16.0,3.9,59,30.06,7.0,NW,17.3,21.9,0.00,,Overcast,320,2013-12-22 20:53:00
2:53 PM,15.1,6.1,68,30.07,4.0,WNW,12.7,21.9,0.00,Snow,Light Snow,300,2013-12-22 21:53:00
3:34 PM,16.0,3.0,57,29.98,10.0,NNW,16.1,27.6,0.00,,Overcast,330,2013-12-22 22:34:00
3:53 PM,16.0,3.9,59,30.07,8.0,NNW,11.5,19.6,0.00,,Overcast,330,2013-12-22 22:53:00
4:53 PM,12.9,3.9,67,30.11,9.0,North,10.4,-,N/A,,Overcast,360,2013-12-22 23:53:00
5:53 PM,12.9,5.0,71,30.13,9.0,Variable,6.9,-,N/A,,Overcast,0,2013-12-23 00:53:00
6:38 PM,12.0,6.1,77,30.02,4.0,Variable,5.8,-,0.00,Snow,Light Snow,0,2013-12-23 01:38:00
6:53 PM,12.9,6.1,74,30.17,5.0,NE,8.1,-,0.00,Snow,Light Snow,40,2013-12-23 01:53:00
7:11 PM,12.9,5.0,71,30.04,7.0,NW,19.6,27.6,0.00,,Overcast,310,2013-12-23 02:11:00
7:22 PM,12.9,5.0,71,30.05,4.0,NW,15.0,33.4,0.00,,Overcast,310,2013-12-23 02:22:00
7:50 PM,12.2,6.8,79,30.05,3.0,Variable,5.8,-,0.00,Snow,Light Snow,0,2013-12-23 02:50:00
7:53 PM,12.9,6.1,74,30.17,3.0,North,8.1,-,0.00,Snow,Light Snow,10,2013-12-23 02:53:00
8:17 PM,12.9,7.0,77,30.05,1.8,North,11.5,-,0.00,Snow,Light Snow,360,2013-12-23 03:17:00
8:32 PM,12.9,7.0,77,30.04,3.0,North,10.4,-,0.00,Snow,Light Snow,360,2013-12-23 03:32:00
8:51 PM,12.2,6.8,79,30.05,2.5,North,10.4,-,0.00,Snow,Light Snow,360,2013-12-23 03:51:00
8:53 PM,12.0,7.0,80,30.13,2.5,North,9.2,-,0.00,Snow,Light Snow,350,2013-12-23 03:53:00
9:13 PM,12.9,8.1,81,30.05,1.8,North,9.2,-,0.01,Snow,Light Snow,350,2013-12-23 04:13:00
9:33 PM,12.0,8.1,84,30.06,2.5,North,11.5,-,0.01,Snow,Light Snow,350,2013-12-23 04:33:00
9:43 PM,12.9,7.0,77,30.06,3.0,North,12.7,20.7,0.01,Snow,Light Snow,350,2013-12-23 04:43:00
9:53 PM,12.9,7.0,77,30.14,4.0,North,11.5,21.9,0.01,Snow,Light Snow,350,2013-12-23 04:53:00
10:22 PM,12.9,8.1,81,30.07,2.0,Variable,5.8,-,0.00,Snow,Light Snow,0,2013-12-23 05:22:00
10:53 PM,12.9,8.1,81,30.14,2.0,NNW,9.2,-,0.01,Snow,Light Snow,340,2013-12-23 05:53:00
11:10 PM,12.9,9.0,84,30.09,1.2,North,11.5,-,0.00,Snow,Light Snow,350,2013-12-23 06:10:00
11:37 PM,12.9,9.0,84,30.10,1.2,NNW,9.2,-,0.01,Snow,Light Snow,340,2013-12-23 06:37:00
11:46 PM,12.9,9.0,84,30.09,2.0,NNW,8.1,-,0.01,Snow,Light Snow,330,2013-12-23 06:46:00
11:53 PM,12.9,8.1,81,30.14,2.0,NNW,8.1,-,0.01,Snow,Light Snow,330,2013-12-23 06:53:00